[[{"header":{"parameterUnit":"m.s-1","parameterCategory":1,"la1":30.2991,"la2":30.254,"lo1":-89.0895,"lo2":-89.0444,"dy":0.0017,"dx":0.0017,"nx":28,"ny":28,"refTime":"2025-04-17T21:00:00:Z","depth":0,"parameterNumber":2,"parameterNumberName":"U-component_of_WINDS"},"data":[0,0,0,0,0,0,0,0,0,0,0,0,0,0,0,0,0,0,0,0,0,0,0,0,0,0,0,0,0,0,0,0,0,0,0,0,0,0,0,0,0,0,0,0,0,0,0,0,0,0,0,0,0,0,0,0,0,0,-0.5086,-0.5087,0,-0.5123,-0.5124,-0.5124,-0.5138,-0.5138,-0.5138,-0.5138,-0.5177,-0.5179,-0.518,0,0,0,0,0,0,0,0,0,0,0,0,0,-0.5031,-0.5032,-0.5086,-0.5087,-0.5087,-0.5123,-0.5124,-0.5124,-0.5138,-0.5138,-0.5138,-0.5138,-0.5177,-0.5178,-0.518,0,0,0,0,0,0,0,0,0,0,0,0,0,-0.506,-0.5032,-0.5086,-0.5098,-0.51,-0.5123,-0.5124,-0.5124,-0.5138,-0.5138,-0.5138,-0.5137,-0.5177,-0.5178,-0.518,-0.5194,0,0,-0.5185,-0.5186,0,0,0,0,0,0,0,0,-0.5059,-0.5062,-0.5096,-0.5098,-0.5099,-0.5126,-0.5119,-0.5148,-0.5138,-0.5124,-0.5138,-0.5137,-0.5161,-0.5164,-0.5171,-0.5196,-0.5198,-0.5186,-0.5187,-0.5187,-0.5188,0,0,0,0,0,0,0,-0.5057,-0.5061,-0.5101,-0.5097,-0.5099,-0.5103,-0.5107,-0.5124,-0.5143,-0.5125,-0.5126,-0.513,-0.5161,-0.5169,-0.5172,-0.5199,-0.5186,-0.5187,-0.5188,-0.5189,-0.5239,-0.5239,0,0,0,0,0,0,-0.5052,-0.5059,-0.51,-0.5102,-0.5078,-0.5104,-0.5109,-0.5117,-0.5142,-0.5146,-0.513,-0.513,-0.5166,-0.517,-0.5173,-0.5193,-0.5187,-0.5189,-0.519,-0.5239,-0.5239,-0.5239,0,0,0,0,0,0,-0.5051,-0.5056,-0.5098,-0.5081,-0.5087,-0.5105,-0.5115,-0.5118,-0.5126,-0.5146,-0.515,-0.5135,-0.5166,-0.5171,-0.5189,-0.5194,-0.519,-0.5191,-0.5238,-0.5239,-0.5239,-0.5231,0,0,0,0,0,0,-0.5049,-0.5055,-0.506,-0.5081,-0.5087,-0.5113,-0.5115,-0.5119,-0.5129,-0.513,-0.5152,-0.5155,-0.5167,-0.5187,-0.5191,-0.5197,-0.5193,-0.5238,-0.5238,-0.5239,-0.5231,-0.5231,-0.5231,0,0,0,0,0,-0.5047,-0.5056,-0.506,-0.5065,-0.5094,-0.5113,-0.5117,-0.5129,-0.5129,-0.5135,-0.5148,-0.5154,-0.5193,-0.5188,-0.5193,-0.52,-0.5238,-0.5238,-0.5239,-0.5231,-0.5231,-0.5231,0,0,0,0,0,0,-0.5036,-0.5059,-0.5064,-0.508,-0.5094,-0.5115,-0.5122,-0.5129,-0.5144,-0.5144,-0.516,-0.5165,-0.5182,-0.5193,-0.5187,-0.5215,-0.5216,-0.5217,-0.5208,-0.5208,-0.5208,-0.5205,-0.5194,0,0,0,0,0,-0.5036,-0.5048,-0.5068,-0.508,-0.5087,-0.5104,-0.5112,-0.5121,-0.5136,-0.5143,-0.5157,-0.5173,-0.5189,-0.5199,-0.5215,-0.5232,-0.5238,-0.5239,-0.5239,-0.5239,-0.5241,-0.5252,-0.5253,-0.5241,-0.5241,-0.5241,0,0,-0.5035,-0.5049,-0.5056,-0.5079,-0.5091,-0.5104,-0.5109,-0.5123,-0.5133,-0.5145,-0.5163,-0.5175,-0.5193,-0.5212,-0.522,-0.5221,-0.5245,-0.524,-0.524,-0.5241,-0.5253,-0.5254,-0.5255,-0.5242,-0.5242,-0.5242,0,0,-0.504,-0.5051,-0.5063,-0.5075,-0.5093,-0.5104,-0.5107,-0.5127,-0.5135,-0.5153,-0.5163,-0.5176,-0.5203,-0.5216,-0.5226,-0.5237,-0.5244,-0.5242,-0.5243,-0.5254,-0.5255,-0.5256,-0.526,-0.5262,-0.5243,-0.5243,-0.5243,0,-0.5037,-0.5057,-0.5069,-0.5082,-0.5093,-0.5103,-0.5116,-0.5128,-0.515,-0.5158,-0.5158,-0.5192,-0.5206,-0.5227,-0.523,-0.5238,-0.5243,-0.524,-0.5253,-0.5254,-0.5256,-0.526,-0.5262,-0.5243,-0.5243,-0.5243,-0.5243,0,-0.5052,-0.5066,-0.5074,-0.5094,-0.5106,-0.5119,-0.5134,-0.5144,-0.5151,-0.5163,-0.5182,-0.5198,-0.5218,-0.5224,-0.5231,-0.5247,-0.5247,-0.525,-0.5251,-0.5256,-0.5261,-0.5263,-0.5243,-0.5243,-0.5243,-0.5243,0,0,-0.5051,-0.5079,-0.5082,-0.5092,-0.5113,-0.5124,-0.5139,-0.5157,-0.5166,-0.5181,-0.5194,-0.5217,-0.522,-0.5232,-0.5241,-0.525,-0.5259,-0.5253,-0.5253,-0.5254,-0.5279,-0.5277,-0.5279,-0.5264,-0.5264,-0.5265,-0.5278,0,-0.506,-0.5084,-0.5096,-0.5116,-0.513,-0.5141,-0.5154,-0.5169,-0.518,-0.5194,-0.5207,-0.5223,-0.5225,-0.5232,-0.5242,-0.5256,-0.5265,-0.5255,-0.5277,-0.5278,-0.5273,-0.5281,-0.5279,-0.529,-0.5279,-0.528,-0.528,0,-0.5072,-0.5087,-0.5109,-0.5129,-0.5135,-0.5146,-0.5165,-0.5178,-0.5195,-0.5203,-0.5216,-0.5225,-0.5242,-0.5241,-0.5265,-0.5259,-0.5269,-0.5277,-0.5278,-0.5281,-0.5279,-0.5285,-0.5294,-0.5296,-0.5283,-0.5283,-0.5283,0,-0.507,-0.5096,-0.5112,-0.5121,-0.5144,-0.5152,-0.5163,-0.518,-0.5191,-0.5207,-0.5215,-0.5233,-0.5243,-0.5258,-0.5272,-0.527,-0.5295,-0.5295,-0.5303,-0.5302,-0.5308,-0.5307,-0.5319,-0.5313,-0.5313,-0.5313,-0.5313,0,-0.5079,-0.5092,-0.5112,-0.5122,-0.5137,-0.5151,-0.5166,-0.5178,-0.5193,-0.5207,-0.5217,-0.523,-0.5248,-0.5263,-0.5275,-0.5293,-0.5298,-0.5305,-0.5308,-0.5304,-0.5304,-0.5311,-0.5311,-0.5313,-0.5313,-0.5313,-0.5313,0,-0.5079,-0.5093,-0.5112,-0.5133,-0.5138,-0.5149,-0.5167,-0.5178,-0.519,-0.5207,-0.5212,-0.5231,-0.5249,-0.5265,-0.529,-0.5297,-0.5317,-0.532,-0.5311,-0.5312,-0.5319,-0.5319,-0.5337,-0.534,-0.5331,-0.5331,-0.5331,0,-0.5084,-0.5094,-0.5116,-0.5125,-0.5136,-0.5151,-0.5162,-0.5176,-0.5187,-0.5209,-0.5217,-0.5237,-0.5253,-0.5282,-0.5299,-0.5318,-0.5322,-0.5327,-0.5325,-0.5321,-0.5323,-0.5323,-0.5324,-0.5327,-0.5327,-0.5327,-0.5327,0,-0.5091,-0.5097,-0.5112,-0.5129,-0.5142,-0.5157,-0.5172,-0.5179,-0.5197,-0.5209,-0.5228,-0.5241,-0.5266,-0.5285,-0.5306,-0.5318,-0.5326,-0.5328,-0.5331,-0.5327,-0.5322,-0.5326,-0.5312,-0.5328,-0.5328,-0.5328,-0.5328,-0.5328,-0.5094,-0.5104,-0.5121,-0.5137,-0.515,-0.5164,-0.5176,-0.5189,-0.5205,-0.5226,-0.5234,-0.5253,-0.5272,-0.5301,-0.5313,-0.533,-0.5331,-0.5335,-0.5336,-0.5337,-0.5337,-0.5319,-0.5333,-0.5334,-0.5334,-0.5334,-0.5334,0,-0.5102,-0.5114,-0.5129,-0.5149,-0.5163,-0.5168,-0.5186,-0.5197,-0.5213,-0.523,-0.5246,-0.5268,-0.5287,-0.5305,-0.5325,-0.5335,-0.5339,-0.534,-0.534,-0.5343,-0.5334,-0.533,-0.5336,-0.5336,-0.5336,-0.5336,-0.5336,-0.5336,-0.5108,-0.5125,-0.5133,-0.5158,-0.517,-0.5188,-0.5198,-0.5212,-0.5225,-0.5249,-0.5265,-0.5276,-0.5294,-0.5316,-0.5334,-0.5339,-0.5346,-0.5346,-0.5352,-0.5344,-0.5343,-0.5343,-0.5339,-0.5347,-0.5347,-0.536,-0.536,-0.536]},{"header":{"parameterUnit":"m.s-1","parameterCategory":1,"la1":30.2991,"la2":30.254,"lo1":-89.0895,"lo2":-89.0444,"dy":0.0017,"dx":0.0017,"nx":28,"ny":28,"refTime":"2025-04-17T21:00:00:Z","depth":0,"parameterNumber":3,"parameterNumberName":"V-component_of_WINDS"},"data":[0,0,0,0,0,0,0,0,0,0,0,0,0,0,0,0,0,0,0,0,0,0,0,0,0,0,0,0,0,0,0,0,0,0,0,0,0,0,0,0,0,0,0,0,0,0,0,0,0,0,0,0,0,0,0,0,0,0,6.3969,6.3971,0,6.4098,6.4099,6.4101,6.4057,6.4054,6.4051,6.4048,6.4172,6.4178,6.4184,0,0,0,0,0,0,0,0,0,0,0,0,0,6.3677,6.3683,6.3969,6.3971,6.3973,6.4098,6.4099,6.4101,6.4057,6.4054,6.405,6.4047,6.417,6.4177,6.4185,0,0,0,0,0,0,0,0,0,0,0,0,0,6.3805,6.3685,6.3969,6.3966,6.3967,6.4097,6.4099,6.4102,6.4058,6.4054,6.4049,6.4045,6.4168,6.4177,6.4186,6.4324,0,0,6.4213,6.4216,0,0,0,0,0,0,0,0,6.3797,6.3815,6.3965,6.3966,6.3968,6.4057,6.4042,6.4176,6.4059,6.4023,6.4048,6.4043,6.4137,6.4148,6.4181,6.433,6.4336,6.4213,6.4219,6.4223,6.4225,0,0,0,0,0,0,0,6.3789,6.3809,6.402,6.3967,6.3969,6.3955,6.3969,6.4067,6.4102,6.4026,6.4023,6.4039,6.4137,6.4173,6.4184,6.4337,6.4213,6.4221,6.4227,6.423,6.4603,6.4608,0,0,0,0,0,0,6.378,6.3802,6.4016,6.4024,6.3871,6.3964,6.3979,6.4032,6.4101,6.4107,6.4043,6.4037,6.416,6.4173,6.4188,6.4353,6.4223,6.4231,6.4236,6.4599,6.4604,6.4609,0,0,0,0,0,0,6.3774,6.38,6.4011,6.3912,6.3938,6.3973,6.4034,6.4037,6.4073,6.4113,6.4119,6.4074,6.4157,6.4175,6.4291,6.4357,6.4235,6.4243,6.4593,6.4601,6.4607,6.4686,0,0,0,0,0,0,6.3766,6.3798,6.3853,6.3914,6.3944,6.4114,6.4038,6.4043,6.4089,6.4083,6.4144,6.415,6.4155,6.4278,6.4299,6.4367,6.425,6.4588,6.4597,6.4605,6.4677,6.4694,6.4709,0,0,0,0,0,6.3756,6.3869,6.3856,6.3882,6.4014,6.4118,6.4135,6.4141,6.4095,6.4149,6.4175,6.4148,6.4346,6.429,6.4314,6.4385,6.4583,6.4594,6.4604,6.467,6.4691,6.4709,0,0,0,0,0,0,6.3812,6.3877,6.3863,6.4001,6.4055,6.411,6.4179,6.4163,6.4229,6.422,6.4222,6.4236,6.4354,6.4381,6.4317,6.4521,6.4458,6.4473,6.4499,6.452,6.4535,6.4525,6.4257,0,0,0,0,0,6.3841,6.3923,6.3974,6.409,6.4118,6.4144,6.419,6.419,6.4244,6.4266,6.43,6.4352,6.4426,6.4474,6.4545,6.4681,6.4692,6.4742,6.4757,6.477,6.4783,6.4854,6.4876,6.4643,6.4643,6.4643,0,0,6.3901,6.3946,6.3997,6.4102,6.4144,6.4226,6.4163,6.4253,6.4312,6.4279,6.439,6.4417,6.4474,6.46,6.4657,6.4626,6.485,6.4783,6.4793,6.4799,6.4867,6.4889,6.4909,6.465,6.4649,6.4648,0,0,6.4051,6.4095,6.4196,6.4239,6.4304,6.432,6.4344,6.4403,6.442,6.4532,6.4508,6.4577,6.4705,6.4747,6.4785,6.495,6.4926,6.4972,6.5054,6.5124,6.5142,6.5158,6.5215,6.5235,6.4985,6.4986,6.4986,0,6.4116,6.4242,6.4249,6.434,6.4386,6.4361,6.4461,6.4502,6.4585,6.4616,6.458,6.4739,6.4777,6.4911,6.4951,6.4983,6.5008,6.4965,6.514,6.5156,6.5171,6.5225,6.5246,6.4991,6.499,6.4989,6.4989,0,6.4317,6.4404,6.4477,6.456,6.4614,6.4709,6.4727,6.478,6.4775,6.4795,6.4907,6.4951,6.5029,6.5061,6.5056,6.5194,6.5172,6.5139,6.5074,6.5198,6.5248,6.5269,6.4998,6.4996,6.4994,6.4993,0,0,6.4507,6.4593,6.4619,6.4655,6.4725,6.479,6.4883,6.4961,6.5005,6.5063,6.5138,6.5247,6.5216,6.5259,6.5258,6.532,6.5444,6.5278,6.5279,6.5305,6.5595,6.5618,6.5642,6.543,6.5434,6.5437,6.5589,0,6.4661,6.4827,6.4835,6.4984,6.5062,6.504,6.512,6.5169,6.5189,6.5256,6.5277,6.5353,6.5308,6.5333,6.5393,6.5417,6.5502,6.5406,6.5497,6.55,6.5481,6.5669,6.5695,6.5837,6.5609,6.5613,6.5615,0,6.4863,6.4929,6.5087,6.5143,6.5176,6.5249,6.532,6.5385,6.5439,6.5449,6.5497,6.5488,6.5579,6.5513,6.5637,6.5571,6.5609,6.5626,6.5631,6.5638,6.5564,6.5679,6.5882,6.5903,6.5646,6.5644,6.5642,0,6.4983,6.5111,6.5221,6.5253,6.5322,6.5373,6.5404,6.5454,6.55,6.5561,6.559,6.5661,6.5699,6.5752,6.5761,6.5712,6.5884,6.5819,6.5892,6.5892,6.5928,6.5925,6.6138,6.5956,6.5956,6.5955,6.5955,0,6.5153,6.5249,6.5276,6.5343,6.545,6.5457,6.5561,6.5588,6.5632,6.5702,6.5687,6.5752,6.576,6.5827,6.5834,6.5934,6.5951,6.596,6.596,6.596,6.5959,6.5983,6.5973,6.5961,6.596,6.5958,6.5957,0,6.5304,6.5326,6.5444,6.55,6.5516,6.5592,6.5638,6.5701,6.572,6.5808,6.5829,6.5857,6.5934,6.5949,6.604,6.6044,6.6163,6.6154,6.6145,6.6143,6.6215,6.6207,6.6449,6.648,6.6279,6.6281,6.6283,0,6.5411,6.5485,6.5549,6.5596,6.5629,6.5705,6.5752,6.5761,6.581,6.5877,6.5931,6.6007,6.6069,6.6193,6.6219,6.6288,6.6279,6.6359,6.6289,6.6286,6.6277,6.6272,6.6278,6.6372,6.6374,6.6376,6.6377,0,6.5596,6.5603,6.5673,6.5747,6.5804,6.5861,6.5916,6.5954,6.597,6.6025,6.6106,6.6153,6.6247,6.6321,6.639,6.6417,6.6399,6.6399,6.6419,6.6419,6.641,6.6414,6.618,6.6393,6.6392,6.6391,6.639,6.6389,6.5727,6.5791,6.5846,6.5923,6.5966,6.6017,6.6078,6.6105,6.6173,6.6251,6.6251,6.6338,6.6388,6.6478,6.651,6.6576,6.655,6.658,6.6587,6.6594,6.6599,6.6402,6.6589,6.6588,6.6588,6.6588,6.6587,0,6.591,6.5944,6.6016,6.6093,6.6153,6.6134,6.6193,6.6243,6.6321,6.637,6.6431,6.6522,6.6594,6.6626,6.6696,6.6742,6.6735,6.676,6.6756,6.6762,6.662,6.6595,6.6764,6.6764,6.6764,6.6764,6.6764,6.6764,6.6012,6.6119,6.6132,6.6258,6.629,6.6377,6.6412,6.6458,6.6497,6.66,6.666,6.6682,6.6723,6.6796,6.686,6.6867,6.6892,6.6921,6.6924,6.679,6.6772,6.6755,6.6731,6.6927,6.6927,6.706,6.7061,6.7062]}]]